Year,Month,Day,Hour,Minute,Value (Times are PST for temperature in C)
2015,04,10,00,00,10.70
2015,04,10,00,01,10.60
2015,04,10,00,02,10.60
2015,04,10,00,03,10.50
2015,04,10,00,04,10.40
2015,04,10,00,05,10.40
2015,04,10,00,06,10.30
2015,04,10,00,07,10.30
2015,04,10,00,08,10.20
2015,04,10,00,09,10.20
2015,04,10,00,10,10.10
2015,04,10,00,11,10.10
2015,04,10,00,12,10.00
2015,04,10,00,13,10.00
2015,04,10,00,14,9.90
2015,04,10,00,15,9.90
2015,04,10,00,16,9.80
2015,04,10,00,17,9.80
2015,04,10,00,18,9.80
2015,04,10,00,19,9.70
2015,04,10,00,20,9.70
2015,04,10,00,21,9.70
2015,04,10,00,22,9.60
2015,04,10,00,23,9.60
2015,04,10,00,24,9.60
2015,04,10,00,25,9.60
2015,04,10,00,26,9.50
2015,04,10,00,27,9.50
2015,04,10,00,28,9.50
2015,04,10,00,29,9.50
2015,04,10,00,30,9.50
2015,04,10,00,31,9.60
2015,04,10,00,32,9.60
2015,04,10,00,33,9.60
2015,04,10,00,34,9.60
2015,04,10,00,35,9.60
2015,04,10,00,36,9.60
2015,04,10,00,37,9.70
2015,04,10,00,38,9.70
2015,04,10,00,39,9.70
2015,04,10,00,40,9.70
2015,04,10,00,41,9.70
2015,04,10,00,42,9.70
2015,04,10,00,43,9.70
2015,04,10,00,44,9.70
2015,04,10,00,45,9.70
2015,04,10,00,46,9.70
2015,04,10,00,47,9.70
2015,04,10,00,48,9.70
2015,04,10,00,49,9.70
2015,04,10,00,50,9.70
2015,04,10,00,51,9.80
2015,04,10,00,52,9.80
2015,04,10,00,53,9.80
2015,04,10,00,54,9.80
2015,04,10,00,55,9.80
2015,04,10,00,56,9.80
2015,04,10,00,57,9.80
2015,04,10,00,58,9.80
2015,04,10,00,59,9.80
2015,04,10,01,00,9.80
2015,04,10,01,01,9.90
2015,04,10,01,02,9.90
2015,04,10,01,03,9.90
2015,04,10,01,04,9.90
2015,04,10,01,05,9.90
2015,04,10,01,06,9.90
2015,04,10,01,07,10.00
2015,04,10,01,08,10.00
2015,04,10,01,09,10.00
2015,04,10,01,10,10.00
2015,04,10,01,11,10.10
2015,04,10,01,12,10.10
2015,04,10,01,13,10.10
2015,04,10,01,14,10.10
2015,04,10,01,15,10.10
2015,04,10,01,16,10.20
2015,04,10,01,17,10.20
2015,04,10,01,18,10.20
2015,04,10,01,19,10.20
2015,04,10,01,20,10.20
2015,04,10,01,21,10.20
2015,04,10,01,22,10.20
2015,04,10,01,23,10.20
2015,04,10,01,24,10.20
2015,04,10,01,25,10.20
2015,04,10,01,26,10.20
2015,04,10,01,27,10.20
2015,04,10,01,28,10.30
2015,04,10,01,29,10.20
2015,04,10,01,30,10.20
2015,04,10,01,31,10.20
2015,04,10,01,32,10.20
2015,04,10,01,33,10.20
2015,04,10,01,34,10.20
2015,04,10,01,35,10.20
2015,04,10,01,36,10.20
2015,04,10,01,37,10.20
2015,04,10,01,38,10.20
2015,04,10,01,39,10.20
2015,04,10,01,40,10.20
2015,04,10,01,41,10.20
2015,04,10,01,42,10.20
2015,04,10,01,43,10.10
2015,04,10,01,44,10.10
2015,04,10,01,45,10.10
2015,04,10,01,46,10.10
2015,04,10,01,47,10.10
2015,04,10,01,48,10.10
2015,04,10,01,49,10.10
2015,04,10,01,50,10.10
2015,04,10,01,51,10.00
2015,04,10,01,52,10.00
2015,04,10,01,53,10.00
2015,04,10,01,54,10.00
2015,04,10,01,55,9.90
2015,04,10,01,56,9.90
2015,04,10,01,57,9.90
2015,04,10,01,58,9.90
2015,04,10,01,59,9.90
2015,04,10,02,00,9.90
2015,04,10,02,01,9.90
2015,04,10,02,02,9.80
2015,04,10,02,03,9.80
2015,04,10,02,04,9.80
2015,04,10,02,05,9.80
2015,04,10,02,06,9.80
2015,04,10,02,07,9.80
2015,04,10,02,08,9.80
2015,04,10,02,09,9.80
2015,04,10,02,10,9.70
2015,04,10,02,11,9.70
2015,04,10,02,12,9.70
2015,04,10,02,13,9.70
2015,04,10,02,14,9.70
2015,04,10,02,15,9.70
2015,04,10,02,16,9.60
2015,04,10,02,17,9.60
2015,04,10,02,18,9.60
2015,04,10,02,19,9.50
2015,04,10,02,20,9.50
2015,04,10,02,21,9.40
2015,04,10,02,22,9.40
2015,04,10,02,23,9.30
2015,04,10,02,24,9.30
2015,04,10,02,25,9.20
2015,04,10,02,26,9.20
2015,04,10,02,27,9.20
2015,04,10,02,28,9.10
2015,04,10,02,29,9.10
2015,04,10,02,30,9.10
2015,04,10,02,31,9.00
2015,04,10,02,32,9.00
2015,04,10,02,33,8.90
2015,04,10,02,34,8.90
2015,04,10,02,35,8.90
2015,04,10,02,36,8.90
2015,04,10,02,37,8.90
2015,04,10,02,38,8.90
2015,04,10,02,39,8.90
2015,04,10,02,40,8.80
2015,04,10,02,41,8.80
2015,04,10,02,42,8.80
2015,04,10,02,43,8.80
2015,04,10,02,44,8.80
2015,04,10,02,45,8.80
2015,04,10,02,46,8.80
2015,04,10,02,47,8.80
2015,04,10,02,48,8.80
2015,04,10,02,49,8.80
2015,04,10,02,50,8.80
2015,04,10,02,51,8.80
2015,04,10,02,52,8.70
2015,04,10,02,53,8.70
2015,04,10,02,54,8.70
2015,04,10,02,55,8.70
2015,04,10,02,56,8.70
2015,04,10,02,57,8.70
2015,04,10,02,58,8.60
2015,04,10,02,59,8.60
2015,04,10,03,00,8.60
2015,04,10,03,01,8.60
2015,04,10,03,02,8.60
2015,04,10,03,03,8.60
2015,04,10,03,04,8.60
2015,04,10,03,05,8.60
2015,04,10,03,06,8.50
2015,04,10,03,07,8.50
2015,04,10,03,08,8.50
2015,04,10,03,09,8.50
2015,04,10,03,10,8.50
2015,04,10,03,11,8.40
2015,04,10,03,12,8.40
2015,04,10,03,13,8.40
2015,04,10,03,14,8.40
2015,04,10,03,15,8.40
2015,04,10,03,16,8.40
2015,04,10,03,17,8.40
2015,04,10,03,18,8.40
2015,04,10,03,19,8.30
2015,04,10,03,20,8.30
2015,04,10,03,21,8.30
2015,04,10,03,22,8.30
2015,04,10,03,23,8.30
2015,04,10,03,24,8.30
2015,04,10,03,25,8.30
2015,04,10,03,26,8.30
2015,04,10,03,27,8.30
2015,04,10,03,28,8.30
2015,04,10,03,29,8.30
2015,04,10,03,30,8.30
2015,04,10,03,31,8.30
2015,04,10,03,32,8.30
2015,04,10,03,33,8.30
2015,04,10,03,34,8.30
2015,04,10,03,35,8.30
2015,04,10,03,36,8.30
2015,04,10,03,37,8.30
2015,04,10,03,38,8.30
2015,04,10,03,39,8.30
2015,04,10,03,40,8.40
2015,04,10,03,41,8.40
2015,04,10,03,42,8.40
2015,04,10,03,43,8.40
2015,04,10,03,44,8.40
2015,04,10,03,45,8.40
2015,04,10,03,46,8.40
2015,04,10,03,47,8.40
2015,04,10,03,48,8.40
2015,04,10,03,49,8.40
2015,04,10,03,50,8.40
2015,04,10,03,51,8.40
2015,04,10,03,52,8.40
2015,04,10,03,53,8.40
2015,04,10,03,54,8.40
2015,04,10,03,55,8.40
2015,04,10,03,56,8.40
2015,04,10,03,57,8.40
2015,04,10,03,58,8.40
2015,04,10,03,59,8.40
2015,04,10,04,00,8.40
2015,04,10,04,01,8.40
2015,04,10,04,02,8.40
2015,04,10,04,03,8.30
2015,04,10,04,04,8.30
2015,04,10,04,05,8.30
2015,04,10,04,06,8.30
2015,04,10,04,07,8.30
2015,04,10,04,08,8.30
2015,04,10,04,09,8.30
2015,04,10,04,10,8.30
2015,04,10,04,11,8.30
2015,04,10,04,12,8.30
2015,04,10,04,13,8.30
2015,04,10,04,14,8.30
2015,04,10,04,15,8.30
2015,04,10,04,16,8.30
2015,04,10,04,17,8.30
2015,04,10,04,18,8.30
2015,04,10,04,19,8.30
2015,04,10,04,20,8.30
2015,04,10,04,21,8.30
2015,04,10,04,22,8.40
2015,04,10,04,23,8.40
2015,04,10,04,24,8.40
2015,04,10,04,25,8.40
2015,04,10,04,26,8.40
2015,04,10,04,27,8.40
2015,04,10,04,28,8.40
2015,04,10,04,29,8.40
2015,04,10,04,30,8.40
2015,04,10,04,31,8.40
2015,04,10,04,32,8.40
2015,04,10,04,33,8.40
2015,04,10,04,34,8.30
2015,04,10,04,35,8.30
2015,04,10,04,36,8.30
2015,04,10,04,37,8.30
2015,04,10,04,38,8.30
2015,04,10,04,39,8.30
2015,04,10,04,40,8.30
2015,04,10,04,41,8.30
2015,04,10,04,42,8.30
2015,04,10,04,43,8.30
2015,04,10,04,44,8.30
2015,04,10,04,45,8.30
2015,04,10,04,46,8.30
2015,04,10,04,47,8.30
2015,04,10,04,48,8.40
2015,04,10,04,49,8.40
2015,04,10,04,50,8.40
2015,04,10,04,51,8.40
2015,04,10,04,52,8.40
2015,04,10,04,53,8.40
2015,04,10,04,54,8.40
2015,04,10,04,55,8.40
2015,04,10,04,56,8.40
2015,04,10,04,57,8.40
2015,04,10,04,58,8.40
2015,04,10,04,59,8.40
2015,04,10,05,00,8.40
2015,04,10,05,01,8.40
2015,04,10,05,02,8.40
2015,04,10,05,03,8.40
2015,04,10,05,04,8.30
2015,04,10,05,05,8.30
2015,04,10,05,06,8.30
2015,04,10,05,07,8.30
2015,04,10,05,08,8.30
2015,04,10,05,09,8.30
2015,04,10,05,10,8.30
2015,04,10,05,11,8.30
2015,04,10,05,12,8.30
2015,04,10,05,13,8.30
2015,04,10,05,14,8.30
2015,04,10,05,15,8.30
2015,04,10,05,16,8.20
2015,04,10,05,17,8.20
2015,04,10,05,18,8.20
2015,04,10,05,19,8.20
2015,04,10,05,20,8.20
2015,04,10,05,21,8.30
2015,04,10,05,22,8.30
2015,04,10,05,23,8.30
2015,04,10,05,24,8.30
2015,04,10,05,25,8.30
2015,04,10,05,26,8.30
2015,04,10,05,27,8.30
2015,04,10,05,28,8.40
2015,04,10,05,29,8.40
2015,04,10,05,30,8.50
2015,04,10,05,31,8.50
2015,04,10,05,32,8.60
2015,04,10,05,33,8.60
2015,04,10,05,34,8.60
2015,04,10,05,35,8.60
2015,04,10,05,36,8.60
2015,04,10,05,37,8.60
2015,04,10,05,38,8.60
2015,04,10,05,39,8.70
2015,04,10,05,40,8.70
2015,04,10,05,41,8.70
2015,04,10,05,42,8.70
2015,04,10,05,43,8.70
2015,04,10,05,44,8.70
2015,04,10,05,45,8.70
2015,04,10,05,46,8.70
2015,04,10,05,47,8.70
2015,04,10,05,48,8.60
2015,04,10,05,49,8.60
2015,04,10,05,50,8.60
2015,04,10,05,51,8.60
2015,04,10,05,52,8.60
2015,04,10,05,53,8.50
2015,04,10,05,54,8.50
2015,04,10,05,55,8.40
2015,04,10,05,56,8.40
2015,04,10,05,57,8.40
2015,04,10,05,58,8.30
2015,04,10,05,59,8.30
2015,04,10,06,00,8.20
2015,04,10,06,01,8.20
2015,04,10,06,02,8.20
2015,04,10,06,03,8.10
2015,04,10,06,04,8.10
2015,04,10,06,05,8.00
2015,04,10,06,06,8.00
2015,04,10,06,07,7.90
2015,04,10,06,08,7.80
2015,04,10,06,09,7.70
2015,04,10,06,10,7.70
2015,04,10,06,11,7.60
2015,04,10,06,12,7.50
2015,04,10,06,13,7.50
2015,04,10,06,14,7.40
2015,04,10,06,15,7.40
2015,04,10,06,16,7.30
2015,04,10,06,17,7.30
2015,04,10,06,18,7.30
2015,04,10,06,19,7.20
2015,04,10,06,20,7.20
2015,04,10,06,21,7.20
2015,04,10,06,22,7.10
2015,04,10,06,23,7.10
2015,04,10,06,24,7.10
2015,04,10,06,25,7.10
2015,04,10,06,26,7.10
2015,04,10,06,27,7.10
2015,04,10,06,28,7.10
2015,04,10,06,29,7.10
2015,04,10,06,30,7.20
2015,04,10,06,31,7.20
2015,04,10,06,32,7.20
2015,04,10,06,33,7.20
2015,04,10,06,34,7.20
2015,04,10,06,35,7.20
2015,04,10,06,36,7.20
2015,04,10,06,37,7.20
2015,04,10,06,38,7.20
2015,04,10,06,39,7.20
2015,04,10,06,40,7.20
2015,04,10,06,41,7.20
2015,04,10,06,42,7.20
2015,04,10,06,43,7.20
2015,04,10,06,44,7.30
2015,04,10,06,45,7.30
2015,04,10,06,46,7.30
2015,04,10,06,47,7.30
2015,04,10,06,48,7.30
2015,04,10,06,49,7.30
2015,04,10,06,50,7.30
2015,04,10,06,51,7.30
2015,04,10,06,52,7.30
2015,04,10,06,53,7.30
2015,04,10,06,54,7.30
2015,04,10,06,55,7.30
2015,04,10,06,56,7.30
2015,04,10,06,57,7.30
2015,04,10,06,58,7.30
2015,04,10,06,59,7.20
2015,04,10,07,00,7.20
2015,04,10,07,01,7.20
2015,04,10,07,02,7.20
2015,04,10,07,03,7.20
2015,04,10,07,04,7.20
2015,04,10,07,05,7.20
2015,04,10,07,06,7.20
2015,04,10,07,07,7.10
2015,04,10,07,08,7.10
2015,04,10,07,09,7.10
2015,04,10,07,10,7.10
2015,04,10,07,11,7.10
2015,04,10,07,12,7.10
2015,04,10,07,13,7.10
2015,04,10,07,14,7.10
2015,04,10,07,15,7.10
2015,04,10,07,16,7.00
2015,04,10,07,17,7.00
2015,04,10,07,18,7.00
2015,04,10,07,19,7.00
2015,04,10,07,20,7.00
2015,04,10,07,21,7.00
2015,04,10,07,22,7.00
2015,04,10,07,23,7.00
2015,04,10,07,24,7.00
2015,04,10,07,25,7.00
2015,04,10,07,26,7.00
2015,04,10,07,27,7.00
2015,04,10,07,28,7.00
2015,04,10,07,29,7.10
2015,04,10,07,30,7.10
2015,04,10,07,31,7.10
2015,04,10,07,32,7.10
2015,04,10,07,33,7.20
2015,04,10,07,34,7.20
2015,04,10,07,35,7.20
2015,04,10,07,36,7.20
2015,04,10,07,37,7.30
2015,04,10,07,38,7.30
2015,04,10,07,39,7.30
2015,04,10,07,40,7.30
2015,04,10,07,41,7.30
2015,04,10,07,42,7.30
2015,04,10,07,43,7.30
2015,04,10,07,44,7.30
2015,04,10,07,45,7.30
2015,04,10,07,46,7.30
2015,04,10,07,47,7.30
2015,04,10,07,48,7.30
2015,04,10,07,49,7.30
2015,04,10,07,50,7.20
2015,04,10,07,51,7.20
2015,04,10,07,52,7.20
2015,04,10,07,53,7.20
2015,04,10,07,54,7.20
2015,04,10,07,55,7.20
2015,04,10,07,56,7.20
2015,04,10,07,57,7.10
2015,04,10,07,58,7.10
2015,04,10,07,59,7.10
2015,04,10,08,00,7.10
2015,04,10,08,01,7.10
2015,04,10,08,02,7.10
2015,04,10,08,03,7.10
2015,04,10,08,04,7.20
2015,04,10,08,05,7.20
2015,04,10,08,06,7.20
2015,04,10,08,07,7.20
2015,04,10,08,08,7.20
2015,04,10,08,09,7.20
2015,04,10,08,10,7.20
2015,04,10,08,11,7.20
2015,04,10,08,12,7.20
2015,04,10,08,13,7.20
2015,04,10,08,14,7.20
2015,04,10,08,15,7.20
2015,04,10,08,16,7.20
2015,04,10,08,17,7.20
2015,04,10,08,18,7.20
2015,04,10,08,19,7.30
2015,04,10,08,20,7.20
2015,04,10,08,21,7.20
2015,04,10,08,22,7.20
2015,04,10,08,23,7.20
2015,04,10,08,24,7.20
2015,04,10,08,25,7.10
2015,04,10,08,26,7.10
2015,04,10,08,27,7.20
2015,04,10,08,28,7.20
2015,04,10,08,29,7.20
2015,04,10,08,30,7.20
2015,04,10,08,31,7.30
2015,04,10,08,32,7.40
2015,04,10,08,33,7.40
2015,04,10,08,34,7.50
2015,04,10,08,35,7.50
2015,04,10,08,36,7.60
2015,04,10,08,37,7.60
2015,04,10,08,38,7.70
2015,04,10,08,39,7.70
2015,04,10,08,40,7.80
2015,04,10,08,41,7.80
2015,04,10,08,42,7.80
2015,04,10,08,43,7.80
2015,04,10,08,44,7.80
2015,04,10,08,45,7.80
2015,04,10,08,46,7.90
2015,04,10,08,47,7.90
2015,04,10,08,48,7.90
2015,04,10,08,49,7.90
2015,04,10,08,50,8.00
2015,04,10,08,51,8.00
2015,04,10,08,52,8.00
2015,04,10,08,53,8.00
2015,04,10,08,54,8.00
2015,04,10,08,55,8.00
2015,04,10,08,56,8.00
2015,04,10,08,57,8.10
2015,04,10,08,58,8.10
2015,04,10,08,59,8.10
2015,04,10,09,00,8.10
2015,04,10,09,01,8.10
2015,04,10,09,02,8.10
2015,04,10,09,03,8.10
2015,04,10,09,04,8.10
2015,04,10,09,05,8.10
2015,04,10,09,06,8.10
2015,04,10,09,07,8.10
2015,04,10,09,08,8.10
2015,04,10,09,09,8.10
2015,04,10,09,10,8.10
2015,04,10,09,11,8.10
2015,04,10,09,12,8.10
2015,04,10,09,13,8.10
2015,04,10,09,14,8.10
2015,04,10,09,15,8.10
2015,04,10,09,16,8.10
2015,04,10,09,17,8.20
2015,04,10,09,18,8.20
2015,04,10,09,19,8.20
2015,04,10,09,20,8.20
2015,04,10,09,21,8.20
2015,04,10,09,22,8.20
2015,04,10,09,23,8.20
2015,04,10,09,24,8.20
2015,04,10,09,25,8.20
2015,04,10,09,26,8.20
2015,04,10,09,27,8.20
2015,04,10,09,28,8.20
2015,04,10,09,29,8.30
2015,04,10,09,30,8.30
2015,04,10,09,31,8.30
2015,04,10,09,32,8.30
2015,04,10,09,33,8.30
2015,04,10,09,34,8.30
2015,04,10,09,35,8.30
2015,04,10,09,36,8.30
2015,04,10,09,37,8.30
2015,04,10,09,38,8.40
2015,04,10,09,39,8.40
2015,04,10,09,40,8.40
2015,04,10,09,41,8.40
2015,04,10,09,42,8.40
2015,04,10,09,43,8.40
2015,04,10,09,44,8.40
2015,04,10,09,45,8.40
2015,04,10,09,46,8.40
2015,04,10,09,47,8.40
2015,04,10,09,48,8.40
2015,04,10,09,49,8.40
2015,04,10,09,50,8.40
2015,04,10,09,51,8.40
2015,04,10,09,52,8.50
2015,04,10,09,53,8.50
2015,04,10,09,54,8.50
2015,04,10,09,55,8.50
2015,04,10,09,56,8.50
2015,04,10,09,57,8.50
2015,04,10,09,58,8.50
2015,04,10,09,59,8.50
2015,04,10,10,00,8.50
2015,04,10,10,01,8.50
2015,04,10,10,02,8.50
2015,04,10,10,03,8.50
2015,04,10,10,04,8.40
2015,04,10,10,05,8.40
2015,04,10,10,06,8.40
2015,04,10,10,07,8.40
2015,04,10,10,08,8.40
2015,04,10,10,09,8.40
2015,04,10,10,10,8.40
2015,04,10,10,11,8.40
2015,04,10,10,12,8.50
2015,04,10,10,13,8.50
2015,04,10,10,14,8.50
2015,04,10,10,15,8.60
2015,04,10,10,16,8.60
2015,04,10,10,17,8.60
2015,04,10,10,18,8.60
2015,04,10,10,19,8.70
2015,04,10,10,20,8.70
2015,04,10,10,21,8.70
2015,04,10,10,22,8.70
2015,04,10,10,23,8.70
2015,04,10,10,24,8.70
2015,04,10,10,25,8.70
2015,04,10,10,26,8.70
2015,04,10,10,27,8.70
2015,04,10,10,28,8.70
2015,04,10,10,29,8.70
2015,04,10,10,30,8.70
2015,04,10,10,31,8.70
2015,04,10,10,32,8.70
2015,04,10,10,33,8.70
2015,04,10,10,34,8.70
2015,04,10,10,35,8.70
2015,04,10,10,36,8.70
2015,04,10,10,37,8.70
2015,04,10,10,38,8.70
2015,04,10,10,39,8.70
2015,04,10,10,40,8.70
2015,04,10,10,41,8.70
2015,04,10,10,42,8.70
2015,04,10,10,43,8.80
2015,04,10,10,44,8.80
2015,04,10,10,45,8.80
2015,04,10,10,46,8.80
2015,04,10,10,47,8.90
2015,04,10,10,48,8.90
2015,04,10,10,49,8.90
2015,04,10,10,50,8.90
2015,04,10,10,51,8.90
2015,04,10,10,52,9.00
2015,04,10,10,53,9.00
2015,04,10,10,54,9.10
2015,04,10,10,55,9.10
2015,04,10,10,56,9.10
2015,04,10,10,57,9.10
2015,04,10,10,58,9.10
2015,04,10,10,59,9.10
2015,04,10,11,00,9.00
2015,04,10,11,01,9.00
2015,04,10,11,02,9.00
2015,04,10,11,03,9.00
2015,04,10,11,04,9.10
2015,04,10,11,05,9.10
2015,04,10,11,06,9.10
2015,04,10,11,07,9.10
2015,04,10,11,08,9.20
2015,04,10,11,09,9.20
2015,04,10,11,10,9.20
2015,04,10,11,11,9.20
2015,04,10,11,12,9.20
2015,04,10,11,13,9.20
2015,04,10,11,14,9.20
2015,04,10,11,15,9.20
2015,04,10,11,16,9.30
2015,04,10,11,17,9.30
2015,04,10,11,18,9.30
2015,04,10,11,19,9.30
2015,04,10,11,20,9.30
2015,04,10,11,21,9.30
2015,04,10,11,22,9.40
2015,04,10,11,23,9.40
2015,04,10,11,24,9.40
2015,04,10,11,25,9.50
2015,04,10,11,26,9.50
2015,04,10,11,27,9.50
2015,04,10,11,28,9.50
2015,04,10,11,29,9.60
2015,04,10,11,30,9.50
2015,04,10,11,31,9.50
2015,04,10,11,32,9.50
2015,04,10,11,33,9.50
2015,04,10,11,34,9.50
2015,04,10,11,35,9.50
2015,04,10,11,36,9.60
2015,04,10,11,37,9.60
2015,04,10,11,38,9.60
2015,04,10,11,39,9.60
2015,04,10,11,40,9.60
2015,04,10,11,41,9.60
2015,04,10,11,42,9.60
2015,04,10,11,43,9.60
2015,04,10,11,44,9.60
2015,04,10,11,45,9.70
2015,04,10,11,46,9.70
2015,04,10,11,47,9.70
2015,04,10,11,48,9.70
2015,04,10,11,49,9.80
2015,04,10,11,50,9.80
2015,04,10,11,51,9.80
2015,04,10,11,52,9.80
2015,04,10,11,53,9.80
2015,04,10,11,54,9.80
2015,04,10,11,55,9.90
2015,04,10,11,56,9.90
2015,04,10,11,57,9.90
2015,04,10,11,58,9.90
2015,04,10,11,59,9.90
2015,04,10,12,00,9.90
2015,04,10,12,01,10.00
2015,04,10,12,02,10.00
2015,04,10,12,03,10.00
2015,04,10,12,04,10.00
2015,04,10,12,05,10.00
2015,04,10,12,06,10.00
2015,04,10,12,07,10.00
2015,04,10,12,08,10.00
2015,04,10,12,09,10.00
2015,04,10,12,10,9.90
2015,04,10,12,11,9.90
2015,04,10,12,12,9.90
2015,04,10,12,13,9.90
2015,04,10,12,14,9.90
2015,04,10,12,15,9.90
2015,04,10,12,16,9.90
2015,04,10,12,17,9.90
2015,04,10,12,18,9.90
2015,04,10,12,19,9.90
2015,04,10,12,20,10.00
2015,04,10,12,21,10.10
2015,04,10,12,22,10.10
2015,04,10,12,23,10.10
2015,04,10,12,24,10.20
2015,04,10,12,25,10.20
2015,04,10,12,26,10.20
2015,04,10,12,27,10.30
2015,04,10,12,28,10.30
2015,04,10,12,29,10.30
2015,04,10,12,30,10.30
2015,04,10,12,31,10.30
2015,04,10,12,32,10.40
2015,04,10,12,33,10.40
2015,04,10,12,34,10.40
2015,04,10,12,35,10.40
2015,04,10,12,36,10.40
2015,04,10,12,37,10.40
2015,04,10,12,38,10.40
2015,04,10,12,39,10.40
2015,04,10,12,40,10.40
2015,04,10,12,41,10.40
2015,04,10,12,42,10.40
2015,04,10,12,43,10.50
2015,04,10,12,44,10.50
2015,04,10,12,45,10.50
2015,04,10,12,46,10.50
2015,04,10,12,47,10.50
2015,04,10,12,48,10.50
2015,04,10,12,49,10.40
2015,04,10,12,50,10.40
2015,04,10,12,51,10.40
2015,04,10,12,52,10.40
2015,04,10,12,53,10.40
2015,04,10,12,54,10.40
2015,04,10,12,55,10.30
2015,04,10,12,56,10.30
2015,04,10,12,57,10.30
2015,04,10,12,58,10.40
2015,04,10,12,59,10.40
2015,04,10,13,00,10.40
2015,04,10,13,01,10.40
2015,04,10,13,02,10.40
2015,04,10,13,03,10.40
2015,04,10,13,04,10.40
2015,04,10,13,05,10.40
2015,04,10,13,06,10.50
2015,04,10,13,07,10.50
2015,04,10,13,08,10.50
2015,04,10,13,09,10.50
2015,04,10,13,10,10.50
2015,04,10,13,11,10.50
2015,04,10,13,12,10.40
2015,04,10,13,13,10.40
2015,04,10,13,14,10.40
2015,04,10,13,15,10.40
2015,04,10,13,16,10.40
2015,04,10,13,17,10.40
2015,04,10,13,18,10.40
2015,04,10,13,19,10.40
2015,04,10,13,20,10.40
2015,04,10,13,21,10.40
2015,04,10,13,22,10.40
2015,04,10,13,23,10.40
2015,04,10,13,24,10.40
2015,04,10,13,25,10.40
2015,04,10,13,26,10.40
2015,04,10,13,27,10.30
2015,04,10,13,28,10.30
2015,04,10,13,29,10.30
2015,04,10,13,30,10.30
2015,04,10,13,31,10.20
2015,04,10,13,32,10.20
2015,04,10,13,33,10.20
2015,04,10,13,34,10.20
2015,04,10,13,35,10.20
2015,04,10,13,36,10.20
2015,04,10,13,37,10.10
2015,04,10,13,38,10.10
2015,04,10,13,39,10.10
2015,04,10,13,40,10.10
2015,04,10,13,41,10.00
2015,04,10,13,42,10.00
2015,04,10,13,43,10.00
2015,04,10,13,44,10.00
2015,04,10,13,45,10.00
2015,04,10,13,46,10.00
2015,04,10,13,47,10.00
2015,04,10,13,48,10.00
2015,04,10,13,49,10.00
2015,04,10,13,50,10.00
2015,04,10,13,51,10.10
2015,04,10,13,52,10.10
2015,04,10,13,53,10.00
2015,04,10,13,54,10.00
2015,04,10,13,55,10.00
2015,04,10,13,56,9.90
2015,04,10,13,57,9.90
2015,04,10,13,58,9.90
2015,04,10,13,59,9.90
2015,04,10,14,00,9.90
2015,04,10,14,01,9.90
2015,04,10,14,02,9.90
2015,04,10,14,03,9.90
2015,04,10,14,04,10.00
2015,04,10,14,05,10.00
2015,04,10,14,06,10.00
2015,04,10,14,07,10.00
2015,04,10,14,08,10.00
2015,04,10,14,09,10.00
2015,04,10,14,10,10.00
2015,04,10,14,11,9.90
2015,04,10,14,12,9.90
2015,04,10,14,13,9.90
2015,04,10,14,14,9.90
2015,04,10,14,15,9.90
2015,04,10,14,16,9.90
2015,04,10,14,17,9.80
2015,04,10,14,18,9.80
2015,04,10,14,19,9.80
2015,04,10,14,20,9.80
2015,04,10,14,21,9.80
2015,04,10,14,22,9.80
2015,04,10,14,23,9.80
2015,04,10,14,24,9.80
2015,04,10,14,25,9.80
2015,04,10,14,26,9.90
2015,04,10,14,27,9.90
2015,04,10,14,28,9.90
2015,04,10,14,29,9.90
2015,04,10,14,30,9.90
2015,04,10,14,31,9.90
2015,04,10,14,32,9.90
2015,04,10,14,33,9.90
2015,04,10,14,34,10.00
2015,04,10,14,35,10.00
2015,04,10,14,36,10.00
2015,04,10,14,37,10.00
2015,04,10,14,38,10.10
2015,04,10,14,39,10.10
2015,04,10,14,40,10.10
2015,04,10,14,41,10.20
2015,04,10,14,42,10.20
2015,04,10,14,43,10.20
2015,04,10,14,44,10.20
2015,04,10,14,45,10.30
2015,04,10,14,46,10.30
2015,04,10,14,47,10.30
2015,04,10,14,48,10.30
2015,04,10,14,49,10.30
2015,04,10,14,50,10.30
2015,04,10,14,51,10.30
2015,04,10,14,52,10.40
2015,04,10,14,53,10.40
2015,04,10,14,54,10.40
2015,04,10,14,55,10.40
2015,04,10,14,56,10.40
2015,04,10,14,57,10.40
2015,04,10,14,58,10.40
2015,04,10,14,59,10.30
2015,04,10,15,00,10.30
2015,04,10,15,01,10.30
2015,04,10,15,02,10.30
2015,04,10,15,03,10.40
2015,04,10,15,04,10.40
2015,04,10,15,05,10.40
2015,04,10,15,06,10.40
2015,04,10,15,07,10.40
2015,04,10,15,08,10.50
2015,04,10,15,09,10.50
2015,04,10,15,10,10.60
2015,04,10,15,11,10.60
2015,04,10,15,12,10.60
2015,04,10,15,13,10.60
2015,04,10,15,14,10.60
2015,04,10,15,15,10.60
2015,04,10,15,16,10.60
2015,04,10,15,17,10.60
2015,04,10,15,18,10.70
2015,04,10,15,19,10.70
2015,04,10,15,20,10.70
2015,04,10,15,21,10.70
2015,04,10,15,22,10.70
2015,04,10,15,23,10.70
2015,04,10,15,24,10.70
2015,04,10,15,25,10.70
2015,04,10,15,26,10.80
2015,04,10,15,27,10.80
2015,04,10,15,28,10.80
2015,04,10,15,29,10.80
2015,04,10,15,30,10.80
2015,04,10,15,31,10.80
2015,04,10,15,32,10.80
2015,04,10,15,33,10.70
2015,04,10,15,34,10.70
2015,04,10,15,35,10.70
2015,04,10,15,36,10.70
2015,04,10,15,37,10.70
2015,04,10,15,38,10.70
2015,04,10,15,39,10.70
2015,04,10,15,40,10.70
2015,04,10,15,41,10.70
2015,04,10,15,42,10.70
2015,04,10,15,43,10.70
2015,04,10,15,44,10.70
2015,04,10,15,45,10.70
2015,04,10,15,46,10.60
2015,04,10,15,47,10.60
2015,04,10,15,48,10.60
2015,04,10,15,49,10.60
2015,04,10,15,50,10.60
2015,04,10,15,51,10.60
2015,04,10,15,52,10.60
2015,04,10,15,53,10.50
2015,04,10,15,54,10.50
2015,04,10,15,55,10.50
2015,04,10,15,56,10.50
2015,04,10,15,57,10.50
2015,04,10,15,58,10.50
2015,04,10,15,59,10.50
2015,04,10,16,00,10.40
2015,04,10,16,01,10.40
2015,04,10,16,02,10.40
2015,04,10,16,03,10.50
2015,04,10,16,04,10.50
2015,04,10,16,05,10.50
2015,04,10,16,06,10.50
2015,04,10,16,07,10.50
2015,04,10,16,08,10.50
2015,04,10,16,09,10.50
2015,04,10,16,10,10.40
2015,04,10,16,11,10.40
2015,04,10,16,12,10.40
2015,04,10,16,13,10.30
2015,04,10,16,14,10.30
2015,04,10,16,15,10.20
2015,04,10,16,16,10.10
2015,04,10,16,17,10.00
2015,04,10,16,18,9.90
2015,04,10,16,19,9.70
2015,04,10,16,20,9.50
2015,04,10,16,21,9.40
2015,04,10,16,22,9.20
2015,04,10,16,23,9.10
2015,04,10,16,24,9.00
2015,04,10,16,25,8.90
2015,04,10,16,26,8.80
2015,04,10,16,27,8.70
2015,04,10,16,28,8.60
2015,04,10,16,29,8.60
2015,04,10,16,30,8.50
2015,04,10,16,31,8.50
2015,04,10,16,32,8.40
2015,04,10,16,33,8.30
2015,04,10,16,34,8.30
2015,04,10,16,35,8.20
2015,04,10,16,36,8.20
2015,04,10,16,37,8.20
2015,04,10,16,38,8.10
2015,04,10,16,39,8.10
2015,04,10,16,40,8.00
2015,04,10,16,41,7.90
2015,04,10,16,42,7.90
2015,04,10,16,43,7.80
2015,04,10,16,44,7.80
2015,04,10,16,45,7.70
2015,04,10,16,46,7.60
2015,04,10,16,47,7.60
2015,04,10,16,48,7.50
2015,04,10,16,49,7.40
2015,04,10,16,50,7.40
2015,04,10,16,51,7.30
2015,04,10,16,52,7.30
2015,04,10,16,53,7.20
2015,04,10,16,54,7.20
2015,04,10,16,55,7.20
2015,04,10,16,56,7.10
2015,04,10,16,57,7.10
2015,04,10,16,58,7.00
2015,04,10,16,59,7.00
2015,04,10,17,00,7.00
2015,04,10,17,01,6.90
2015,04,10,17,02,6.90
2015,04,10,17,03,6.80
2015,04,10,17,04,6.80
2015,04,10,17,05,6.80
2015,04,10,17,06,6.80
2015,04,10,17,07,6.80
2015,04,10,17,08,6.70
2015,04,10,17,09,6.70
2015,04,10,17,10,6.70
2015,04,10,17,11,6.60
2015,04,10,17,12,6.60
2015,04,10,17,13,6.60
2015,04,10,17,14,6.50
2015,04,10,17,15,6.50
2015,04,10,17,16,6.50
2015,04,10,17,17,6.50
2015,04,10,17,18,6.40
2015,04,10,17,19,6.40
2015,04,10,17,20,6.40
2015,04,10,17,21,6.40
2015,04,10,17,22,6.30
2015,04,10,17,23,6.30
2015,04,10,17,24,6.30
2015,04,10,17,25,6.30
2015,04,10,17,26,6.30
2015,04,10,17,27,6.30
2015,04,10,17,28,6.30
2015,04,10,17,29,6.30
2015,04,10,17,30,6.20
2015,04,10,17,31,6.20
2015,04,10,17,32,6.20
2015,04,10,17,33,6.20
2015,04,10,17,34,6.20
2015,04,10,17,35,6.20
2015,04,10,17,36,6.20
2015,04,10,17,37,6.20
2015,04,10,17,38,6.20
2015,04,10,17,39,6.20
2015,04,10,17,40,6.20
2015,04,10,17,41,6.20
2015,04,10,17,42,6.20
2015,04,10,17,43,6.20
2015,04,10,17,44,6.20
2015,04,10,17,45,6.20
2015,04,10,17,46,6.20
2015,04,10,17,47,6.20
2015,04,10,17,48,6.20
2015,04,10,17,49,6.20
2015,04,10,17,50,6.20
2015,04,10,17,51,6.20
2015,04,10,17,52,6.20
2015,04,10,17,53,6.20
2015,04,10,17,54,6.20